NIEUW!!! Volg onze weer- en natuurfoto's op Instagram @ weerstationmaaseik.be

WS Maaseik 1 Meer informatie WS Maaseik 1


WS Maaseik 2 Meer informatie WS Maaseik 2


Regen radar Meer informatie rain snow radar


Bezoek onze andere website:

Vorige versie
weerstation Maaseik


Bezoek ook eens deze sites:

Weerstation Geleen



Het weer levert geen direct gevaar op.    Er zijn geen waarschuwingen afgegeven.

15 daagse weersverwachting Bad Ischl (AT)

  • Overzicht
  • Per uur
  • 15 dagen
  • Extra
  • Vergelijk
  • Kaarten
  • Dagkaart
  • Meer »
  • Info
  • Statistieken
  • Directe link
    Temp 6h Neerslag Wind  
 07:37     17:00    Daglengte: 9:23 Vandaag
13:00
2.2 mm
1
19:00
24.6 mm
4
 07:36     17:02    Daglengte: 9:26 Morgen
01:00
30.6 mm
5
07:00
33.9 mm
2
13:00
43.2 mm
5
19:00
47.2 mm
3
 07:35     17:03    Daglengte: 9:28 Zaterdag 30 Jan
01:00
50.9 mm
3
07:00
48.7 mm
2
13:00
 
2
19:00
45.5 mm
1
 07:34     17:05    Daglengte: 9:31 Zondag 31 Jan
01:00
94.0 mm
1
07:00
72.9 mm
1
warningclass
Locatie info
Region: Oberösterreich
Latitude: 47.7120°N
Longitude: 13.6257°E
470 masl
Postcode: 4820
Temp/Neerslag /Baro Onweer/DauwpuntSneeuw
    Temp Baro 1h Neerslag Dauwpunt Wind UV BewolkingSneeuw  
 07:37     17:00    Daglengte: 9:23 Vandaag
11:00
Voelt als: 2.3°
1010.1 hPa 1.4 mm
49%
0.9°
1
Windvlaag: 0.3 m/s
86%30 cm
12:00
Voelt als: 2.5°
1008.5 hPa
29%
1.3°
1
Windvlaag: 0.5 m/s
89%29 cm
13:00
Voelt als: 2.8°
1007.0 hPa 0.8 mm
71%
1.6°
1
Windvlaag: 1.2 m/s
91%28 cm
14:00
Voelt als: 2.5°
1005.9 hPa 1.4 mm
80%
2.1°
1
Windvlaag: 1.4 m/s
91%28 cm
15:00
Voelt als: 2.5°
1005.7 hPa 2.9 mm
82%
2.5°
1
Windvlaag: 1.3 m/s
91%31 cm
16:00
Voelt als: 1.7°
1005.4 hPa 4.1 mm
82%
2.5°
2
Windvlaag: 0.6 m/s
91%30 cm
17:00
Voelt als: 1.3°
1004.7 hPa 4.5 mm
82%
2.5°
2
Windvlaag: 0.6 m/s
90%29 cm
18:00
Voelt als: 0.8°
1004.2 hPa 5.4 mm
82%
2.7°
3
Windvlaag: 1.2 m/s
90%28 cm
19:00
Voelt als: 1.2°
1004.1 hPa 6.3 mm
82%
3.4°
4
Windvlaag: -2.4 m/s
90%27 cm
20:00
Voelt als: 2.3°
1004.0 hPa 4.6 mm
82%
4.4°
4
Windvlaag: -2.4 m/s
89%26 cm
21:00
Voelt als: 2.5°
1004.1 hPa 4.5 mm
82%
4.6°
5
Windvlaag: -1.8 m/s
88%25 cm
22:00
Voelt als: 2.6°
1004.6 hPa 4.6 mm
82%
4.2°
5
Windvlaag: -2.6 m/s
86%24 cm
23:00
Voelt als: 2.6°
1004.8 hPa 5.2 mm
82%
4.2°
5
Windvlaag: -2.2 m/s
88%24 cm
 07:36     17:02    Daglengte: 9:26 Morgen
00:00
Voelt als: 2.5°
1005.7 hPa 5.8 mm
82%
4.6°
5
Windvlaag: -2.6 m/s
88%23 cm
01:00
Voelt als: 2.6°
1005.7 hPa 5.8 mm
82%
3.9°
5
Windvlaag: -2.1 m/s
91%22 cm
02:00
Voelt als: 2.9°
1006.0 hPa 5.4 mm
82%
3.8°
4
Windvlaag: -1.2 m/s
90%21 cm
03:00
Voelt als: 3.1°
1005.6 hPa 5.0 mm
82%
3.8°
3
Windvlaag: -0.1 m/s
82%21 cm
04:00
Voelt als: 3.2°
1004.7 hPa
82%
3.7°
3
Windvlaag: 0.2 m/s
72%20 cm
05:00
Voelt als: 3.3°
1004.3 hPa 7.2 mm
82%
3.5°
2
Windvlaag: -0.4 m/s
77%20 cm
06:00
Voelt als: 3.3°
1003.6 hPa 7.9 mm
82%
3.1°
2
Windvlaag: -0.2 m/s
88%20 cm
07:00
Voelt als: 3.1°
1002.7 hPa 8.4 mm
82%
3.1°
2
Windvlaag: 0.7 m/s
75%19 cm
08:00
Voelt als: 3.0°
1002.0 hPa 5.8 mm
82%
3.1°
2
Windvlaag: 2.1 m/s
91%19 cm
09:00
Voelt als: 3.7°
1001.1 hPa 6.0 mm
82%
3.4°
2
Windvlaag: 1.1 m/s
91%18 cm
10:00
Voelt als: 4.4°
1000.3 hPa 6.8 mm
82%
3.2°
1
Windvlaag: 0.8 m/s
91%18 cm
11:00
Voelt als: 4.1°
1000.1 hPa 7.6 mm
82%
3.1°
2
Windvlaag: 0.8 m/s
91%18 cm
12:00
Voelt als: 3.6°
1000.8 hPa 8.5 mm
82%
3.5°
2
Windvlaag: 0.8 m/s
91%17 cm
13:00
Voelt als: 2.3°
1001.2 hPa 8.6 mm
82%
4.4°
5
Windvlaag: -0.2 m/s
91%17 cm
14:00
Voelt als: 2.3°
1001.4 hPa 8.7 mm
80%
4.0°
5
Windvlaag: -1.6 m/s
88%17 cm
15:00
Voelt als: 2.7°
1001.6 hPa 11.5 mm
66%
3.3°
5
Windvlaag: -1.9 m/s
87%16 cm
16:00
Voelt als: 2.5°
1001.6 hPa
67%
2.4°
5
Windvlaag: -1.9 m/s
88%16 cm
17:00
Voelt als: 2.2°
1001.8 hPa 11.2 mm
70%
2.0°
4
Windvlaag: -1.1 m/s
84%16 cm
18:00
Voelt als: 2.2°
1001.9 hPa 7.9 mm
77%
1.6°
3
Windvlaag: -2 m/s
71%16 cm
19:00
Voelt als: 1.8°
1002.4 hPa 7.9 mm
81%
1.8°
3
Windvlaag: -1.4 m/s
72%15 cm
20:00
Voelt als: 1.5°
1002.5 hPa 8.0 mm
81%
1.8°
4
Windvlaag: -1.1 m/s
76%15 cm
21:00
Voelt als: 1.6°
1002.5 hPa 7.8 mm
80%
1.7°
3
Windvlaag: -0.5 m/s
71%15 cm
22:00
Voelt als: 1.8°
1002.4 hPa 8.3 mm
82%
1.4°
3
Windvlaag: -0.3 m/s
82%15 cm
23:00
Voelt als: 1.2°
1002.5 hPa 8.9 mm
82%
1.4°
2
Windvlaag: -0.5 m/s
90%16 cm
 07:35     17:03    Daglengte: 9:28 Zaterdag 30 Jan
00:00
Voelt als: 0.9°
1003.1 hPa 8.8 mm
82%
2.2°
2
Windvlaag: -0.8 m/s
87%17 cm
01:00
Voelt als: 1.0°
1003.8 hPa 9.2 mm
82%
2.4°
3
Windvlaag: -0.4 m/s
84%17 cm
02:00
Voelt als: 0.6°
1004.1 hPa 8.9 mm
80%
2.1°
3
Windvlaag: 0.8 m/s
82%18 cm
03:00
Voelt als: 0.7°
1004.0 hPa 9.2 mm
82%
1.7°
3
Windvlaag: 0.1 m/s
87%19 cm
04:00
Voelt als: 0.6°
1004.2 hPa 9.0 mm
99%
1.2°
3
Windvlaag: -1 m/s
78%19 cm
05:00
Voelt als: 1.3°
1003.9 hPa 9.1 mm
98%
1.5°
2
Windvlaag: -0.5 m/s
95%19 cm
06:00
Voelt als: 1.2°
1003.3 hPa
98%
1.8°
2
Windvlaag: -0.7 m/s
87%19 cm
07:00
Voelt als: 0.9°
1002.8 hPa 12.6 mm
100%
1.7°
2
Windvlaag: -0.5 m/s
77%19 cm
08:00
Voelt als: 1.4°
1002.6 hPa
100%
1.3°
1
Windvlaag: -0.7 m/s
69%19 cm
09:00
Voelt als: 2.1°
1002.6 hPa
77%
1.6°
2
Windvlaag: -0.4 m/s
94%19 cm
10:00
Voelt als: 2.7°
1002.4 hPa
25%
0.6°
2
Windvlaag: -0.2 m/s
87%19 cm
11:00
Voelt als: 3.3°
1001.8 hPa
21%
2.0°
2
Windvlaag: -0.4 m/s
75%18 cm
12:00
Voelt als: 4.3°
1000.5 hPa
22%
2.3°
2
Windvlaag: -0.7 m/s
72%18 cm
13:00
Voelt als: 5.0°
998.8 hPa
21%
1.2°
2
Windvlaag: -0.8 m/s
93%18 cm
14:00
Voelt als: 5.2°
997.7 hPa
21%
2.3°
1
Windvlaag: -0.7 m/s
92%17 cm
15:00
Voelt als: 3.8°
997.1 hPa
23%
2.5°
1
Windvlaag: 0.1 m/s
93%18 cm
16:00
Voelt als: 4.4°
996.5 hPa 13.1 mm
24%
1.7°
1
Windvlaag: 1 m/s
96%18 cm
17:00
Voelt als: 3.8°
996.1 hPa 13.2 mm
91%
1.6°
1
Windvlaag: 0.5 m/s
98%17 cm
18:00
Voelt als: 3.7°
995.7 hPa 9.6 mm
100%
2.1°
1
Windvlaag: 0.1 m/s
99%17 cm
19:00
Voelt als: 3.4°
995.2 hPa 9.7 mm
100%
2.2°
1
Windvlaag: 0.4 m/s
99%17 cm
20:00
995.3 hPa 22.5 mm
100%
2.2°
1
Windvlaag: 0.6 m/s
99%18 cm
21:00
Voelt als: 2.7°
995.6 hPa 13.8 mm
100%
1.9°
1
Windvlaag: -0 m/s
100%18 cm
22:00
Voelt als: 1.8°
995.8 hPa 14.0 mm
100%
1.7°
1
Windvlaag: -0.5 m/s
100%19 cm
23:00
Voelt als: 2.1°
996.2 hPa 14.4 mm
100%
1.6°
1
Windvlaag: -1.8 m/s
100%19 cm
 07:34     17:05    Daglengte: 9:31 Zondag 31 Jan
00:00
Voelt als: 1.8°
996.4 hPa 14.7 mm
100%
1.6°
1
Windvlaag: -1 m/s
100%20 cm
01:00
Voelt als: 1.5°
996.6 hPa 14.6 mm
100%
1.5°
1
Windvlaag: -0.2 m/s
100%20 cm
02:00
Voelt als: 1.1°
997.1 hPa 23.9 mm
100%
1.3°
1
Windvlaag: 3.7 m/s
100%21 cm
03:00
Voelt als: 1.1°
997.1 hPa 24.1 mm
100%
1.2°
1
Windvlaag: 4.9 m/s
100%22 cm
04:00
Voelt als: 1.1°
997.0 hPa
96%
1.1°
1
Windvlaag: 4.4 m/s
100%23 cm
05:00
Voelt als: 1.2°
997.0 hPa
99%
0.9°
1
Windvlaag: 3.9 m/s
94%23 cm
06:00
997.3 hPa
93%
0.8°
1
Windvlaag: 3.5 m/s
94%24 cm
07:00
997.7 hPa 24.9 mm
95%
0.7°
1
Windvlaag: 0.5 m/s
100%24 cm warningclass
08:00
Voelt als: 0.6°
999.6 hPa 75.0 mm
100%
0.5°
1
Windvlaag: 3.4 m/s
99%25 cm warningclass
09:00
Voelt als: 0.6°
999.9 hPa 75.2 mm
100%
0.5°
1
Windvlaag: 4.2 m/s
99%25 cm warningclass
10:00
Voelt als: 0.8°
1000.3 hPa 75.3 mm
100%
0.6°
1
Windvlaag: 4.2 m/s
100%25 cm
Temp/Neerslag /Baro Onweer/DauwpuntSneeuw
    Temp Baro Neerslag Dauwpunt Wind BewolkingSneeuw  
 07:37     17:00    Daglengte: 9:23 Vandaag
13:00
Voelt als: 2.8°
1007.0 hPa 2.2 mm 1.6°
1
91%28 cm
16:00
Voelt als: 1.7°
1005.4 hPa 8.3 mm 2.5°
2
91%30 cm
19:00
Voelt als: 1.2°
1004.1 hPa 16.3 mm 3.4°
4
90%27 cm
22:00
Voelt als: 2.6°
1004.6 hPa 13.7 mm 4.2°
5
86%24 cm
 07:36     17:02    Daglengte: 9:26 Morgen
01:00
Voelt als: 2.6°
1005.7 hPa 16.8 mm 3.9°
5
91%22 cm
04:00
Voelt als: 3.2°
1004.7 hPa 10.4 mm 3.7°
3
72%20 cm
07:00
Voelt als: 3.1°
1002.7 hPa 23.5 mm 3.1°
2
75%19 cm
10:00
Voelt als: 4.4°
1000.3 hPa 18.5 mm 3.2°
1
91%18 cm
13:00
Voelt als: 2.3°
1001.2 hPa 24.7 mm 4.4°
5
91%17 cm
16:00
Voelt als: 2.5°
1001.6 hPa 20.2 mm 2.4°
5
88%16 cm
19:00
Voelt als: 1.8°
1002.4 hPa 27.0 mm 1.8°
3
72%15 cm
22:00
Voelt als: 1.8°
1002.4 hPa 24.1 mm 1.4°
3
82%15 cm
 07:35     17:03    Daglengte: 9:28 Zaterdag 30 Jan
01:00
Voelt als: 1.0°
1003.8 hPa 26.8 mm 2.4°
3
84%17 cm
04:00
Voelt als: 0.6°
1004.2 hPa 27.1 mm 1.2°
3
78%19 cm
07:00
Voelt als: 0.9°
1002.8 hPa 21.7 mm 1.7°
2
77%19 cm
10:00
Voelt als: 2.7°
1002.4 hPa   0.6°
2
87%19 cm
13:00
Voelt als: 5.0°
998.8 hPa   1.2°
2
93%18 cm
16:00
Voelt als: 4.4°
996.5 hPa 13.1 mm 1.7°
1
96%18 cm
19:00
Voelt als: 3.4°
995.2 hPa 32.5 mm 2.2°
1
99%17 cm
22:00
Voelt als: 1.8°
995.8 hPa 50.3 mm 1.7°
1
100%19 cm
 07:34     17:05    Daglengte: 9:31 Zondag 31 Jan
01:00
Voelt als: 1.5°
996.6 hPa 43.7 mm 1.5°
1
100%20 cm
04:00
Voelt als: 1.1°
997.0 hPa 48.0 mm 1.1°
1
100%23 cm
07:00
997.7 hPa 24.9 mm 0.7°
1
100%24 cm warningclass
10:00
Voelt als: 0.8°
1000.3 hPa 225.5 mm 0.6°
1
100%25 cm
13:00
Voelt als: 1.5°
1001.1 hPa 226.1 mm 0.6°
1
96%25 cm
16:00
1001.9 hPa 70.8 mm 1.5°
1
85%
19:00
Voelt als: 1.9°
1002.2 hPa 71.2 mm 1.4°
1
82%
22:00
Voelt als: 1.6°
1001.0 hPa 71.2 mm 1.3°
1
80%
 07:32     17:07    Daglengte: 9:35 Maandag 01 Feb
01:00
Voelt als: 1.0°
999.8 hPa 71.2 mm 1.0°
1
79%
04:00
-0°
Voelt als: -1.7°
997.7 hPa 71.2 mm -1.1°
1
39% warningclass
07:00
-2°
Voelt als: -4.4°
995.9 hPa 71.2 mm -3.2°
2
0% warningclass
10:00
Voelt als: 1.5°
995.4 hPa 71.2 mm -1.5°
1
42%
13:00
Voelt als: 6.8°
994.9 hPa 71.3 mm -1.0°
1
83%
16:00
Voelt als: 5.3°
997.5 hPa 72.1 mm 0.2°
1
87%
19:00
1000.4 hPa 75.0 mm 1.0°
1
91%
22:00
Voelt als: 3.2°
1001.9 hPa 79.4 mm 1.2°
1
91%
 07:31     17:08    Daglengte: 9:37 Dinsdag 02 Feb
01:00
1003.3 hPa 82.1 mm 1.4°
1
92%
04:00
Voelt als: 1.5°
1007.4 hPa 83.9 mm 1.8°
1
91%
07:00
Voelt als: 0.7°
1011.6 hPa 85.6 mm 2.1°
2
91%
10:00
Voelt als: 1.5°
1014.0 hPa 86.4 mm 2.1°
2
91%
13:00
Voelt als: 2.3°
1016.3 hPa 86.5 mm 2.1°
1
91%
16:00
Voelt als: 1.7°
1015.7 hPa 86.5 mm 1.6°
1
91%
19:00
Voelt als: 1.2°
1015.3 hPa 86.5 mm 1.0°
1
92%
22:00
Voelt als: 0.4°
1013.6 hPa 87.3 mm 0.6°
2
92%
 07:30     17:10    Daglengte: 9:40 Woensdag 03 Feb
01:00
Voelt als: -0.4°
1011.9 hPa 87.6 mm -0.1°
2
92%
04:00
Voelt als: 0.4°
1010.3 hPa 87.7 mm 0.1°
2
92%
07:00
Voelt als: 1.3°
1008.8 hPa 89.2 mm 0.5°
2
92%
10:00
Voelt als: 3.9°
1008.4 hPa 90.2 mm 1.7°
1
91%
13:00
Voelt als: 6.4°
1007.8 hPa 90.2 mm 2.9°
1
90%
16:00
Voelt als: 5.0°
1008.6 hPa 90.2 mm 2.6°
1
68%
19:00
Voelt als: 3.5°
1009.5 hPa 90.2 mm 2.2°
1
46%
22:00
Voelt als: 3.3°
1011.0 hPa 90.2 mm 2.1°
2
57%
 07:28     17:11    Daglengte: 9:43 Donderdag 04 Feb
01:00
Voelt als: 3.4°
1012.5 hPa 90.2 mm 2.3°
2
69%
04:00
Voelt als: 3.4°
1013.3 hPa 90.2 mm 2.2°
2
63%
07:00
Voelt als: 3.8°
1014.1 hPa 90.2 mm 2.2°
1
57%
10:00
Voelt als: 7.1°
1013.4 hPa   2.3°
1
29%
13:00
10°
Voelt als: 9.7°
1012.6 hPa 180.5 mm 1.6°
1
2%
19:00
Voelt als: 5.3°
1009.9 hPa 180.5 mm 0.8°
1
88%
 07:27     17:13    Daglengte: 9:46 Vrijdag 05 Feb
01:00
Voelt als: 1.0°
1007.7 hPa 180.5 mm 0.3°
3
78%
07:00
Voelt als: -0.4°
1008.5 hPa 180.5 mm -0.0°
2
87%
13:00
13°
1009.4 hPa 180.5 mm 3.2°
1
56%
19:00
Voelt als: 4.4°
1010.9 hPa 186.1 mm 1.0°
1
55%
 07:25     17:14    Daglengte: 9:49 Zaterdag 06 Feb
01:00
Voelt als: 1.6°
1011.4 hPa 195.2 mm 1.3°
2
36%
07:00
Voelt als: 0.9°
1011.5 hPa 211.4 mm -0.4°
1
52%
13:00
Voelt als: 4.0°
1007.6 hPa 216.7 mm 4.7°
1
1%
19:00
Voelt als: 1.7°
1007.7 hPa 217.2 mm 3.5°
2
1%
 07:24     17:16    Daglengte: 9:52 Zondag 07 Feb
01:00
Voelt als: -0.2°
1004.9 hPa 217.5 mm 2.0°
2
1%
07:00
-0°
Voelt als: -0.2°
1016.5 hPa 1.2 mm -1.2°
0
85%
13:00
Voelt als: 2.5°
1016.4 hPa 0.7 mm 0.9°
1
87%
19:00
Voelt als: 0.1°
1017.6 hPa 0.8 mm -0.9°
1
87%
 07:22     17:18    Daglengte: 9:56 Maandag 08 Feb
01:00
-1°
1018.5 hPa 0.5 mm -2.4°
1
84%
07:00
-2°
Voelt als: -2.2°
1018.7 hPa 0.5 mm -3.5°
1
81%
13:00
Voelt als: 1.6°
1018.2 hPa 0.6 mm -0.3°
1
80%
19:00
-1°
1020.1 hPa 0.6 mm -2.4°
0
82%
 07:21     17:19    Daglengte: 9:58 Dinsdag 09 Feb
01:00
-3°
1021.8 hPa 0.6 mm -3.8°
0
80%
07:00
-4°
1022.1 hPa 0.5 mm -4.8°
0
77%
13:00
Voelt als: 1.5°
1020.8 hPa 0.4 mm -0.8°
1
76%
19:00
-2°
Voelt als: -1.7°
1022.2 hPa 0.4 mm -3.0°
0
79%
 07:19     17:21    Daglengte: 10:02 Woensdag 10 Feb
01:00
-3°
Voelt als: -3.4°
1022.8 hPa 0.7 mm -4.3°
1
83%
07:00
-3°
Voelt als: -4.0°
1022.3 hPa 1.2 mm -5.0°
1
77%
13:00
1020.7 hPa 1.2 mm -0.7°
1
73%
19:00
-1°
1022.0 hPa 0.8 mm -2.7°
1
72%
 07:18     17:22    Daglengte: 10:04 Donderdag 11 Feb
01:00
-3°
Voelt als: -3.4°
1023.0 hPa 1.1 mm -4.3°
1
68%
07:00
-3°
Voelt als: -4.2°
1022.6 hPa 1.1 mm -5.0°
1
69%
13:00
Voelt als: 1.5°
1020.9 hPa 1.1 mm -0.8°
1
71%
19:00
-2°
Voelt als: -1.8°
1022.1 hPa 0.6 mm -3.1°
1
73%
 07:16     17:24    Daglengte: 10:08 Vrijdag 12 Feb
01:00
-3°
Voelt als: -3.9°
1022.7 hPa 0.8 mm -4.6°
1
69%
07:00
-3°
Voelt als: -3.9°
1021.8 hPa 0.7 mm -4.9°
1
71%
  CAPE Lifted Index Hail Supercell Tornado SRH 3km CL BTM PRES CL TOP PRES Swiss DWD icon SMHI TS
 07:37     17:00    Daglengte: 9:23 Vandaag
11:00 0 J/kg 6.3 K 0 % 0 % 0 % 0 m²/s² 0 0 7.47 3
12:00 0 J/kg 5.8 K 0 % 0 % 0 % 0 m²/s² 0 0 6.73 3
13:00 0 J/kg 5.6 K 0 % 0 % 0 % 0 m²/s² 0 0 5.87 3
14:00 1 J/kg 5.1 K 0 % 0 % 0 % 0 m²/s² 0 0 5.34 61
15:00 0 J/kg 4.3 K 0 % 0 % 0 % 0 m²/s² 0 0 4.54 61
16:00 0 J/kg 2.0 K 0 % 0 % 0 % 0 m²/s² 0 0 2.24 61
17:00 0 J/kg 0.5 K 0 % 0 % 0 % 0 m²/s² 0 0 0.92 73
18:00 1 J/kg -1.7 K 0 % 0 % 0 % 0 m²/s² 0 0 -1.37 63
19:00 1 J/kg -1.6 K 0 % 0 % 0 % 0 m²/s² 0 0 -0.76 63
20:00 1 J/kg -0.4 K 0 % 0 % 0 % 0 m²/s² 0 0 0.26 80
21:00 1 J/kg 0.5 K 0 % 0 % 0 % 0 m²/s² 0 0 0.98 80
22:00 1 J/kg 1.0 K 0 % 0 % 0 % 0 m²/s² 0 0 1.39 80
23:00 1 J/kg 1.6 K 0 % 0 % 0 % 0 m²/s² 0 0 1.93 80
 07:36     17:02    Daglengte: 9:26 Morgen
00:00 1 J/kg 2.2 K 0 % 0 % 0 % 0 m²/s² 0 0 2.86 80
01:00 1 J/kg 2.6 K 0 % 0 % 0 % 0 m²/s² 0 0 3.92 80
02:00 2 J/kg 3.3 K 0 % 0 % 0 % 0 m²/s² 0 0 5.73 80
03:00 9 J/kg 4.5 K 0 % 0 % 0 % 0 m²/s² 0 0 7.95 80
04:00 14 J/kg 4.9 K 0 % 0 % 0 % 0 m²/s² 0 0 9.04 3
05:00 5 J/kg 4.5 K 0 % 0 % 0 % 0 m²/s² 0 0 7.44 61
06:00 0 J/kg 3.4 K 0 % 0 % 0 % 0 m²/s² 0 0 4.72 63
07:00 0 J/kg 3.2 K 0 % 0 % 0 % 0 m²/s² 0 0 3.74 61
08:00 0 J/kg 3.1 K 0 % 0 % 0 % 0 m²/s² 0 0 3.37 61
09:00 6 J/kg 2.9 K 0 % 0 % 0 % 0 m²/s² 0 0 3.26 61
10:00 4 J/kg 2.5 K 0 % 0 % 0 % 0 m²/s² 0 0 2.86 61
11:00 0 J/kg 1.7 K 0 % 0 % 0 % 0 m²/s² 0 0 1.97 63
12:00 0 J/kg 1.1 K 0 % 0 % 0 % 0 m²/s² 0 0 1.37 61
13:00 0 J/kg 0.7 K 0 % 0 % 0 % 0 m²/s² 0 0 1.06 80
14:00 1 J/kg 0.5 K 0 % 0 % 0 % 0 m²/s² 0 0 1.1 3
15:00 16 J/kg 2.3 K 0 % 0 % 0 % 0 m²/s² 0 0 4.46 3
16:00 54 J/kg 2.4 K 0 % 0 % 0 % 0 m²/s² 0 0 4.62 3
17:00 38 J/kg 2.5 K 0 % 0 % 0 % 0 m²/s² 0 0 4.99 3
18:00 45 J/kg 1.5 K 0 % 0 % 0 % 0 m²/s² 0 0 3.63 3
19:00 39 J/kg 1.2 K 0 % 0 % 0 % 0 m²/s² 0 0 3.57 80
20:00 6 J/kg 0.8 K 0 % 0 % 0 % 0 m²/s² 0 0 3.35 2
21:00 2 J/kg 0.9 K 0 % 0 % 0 % 0 m²/s² 0 0 2.49 2
22:00 1 J/kg 0.4 K 0 % 0 % 0 % 0 m²/s² 0 0 0.97 61
23:00 1 J/kg 0.4 K 0 % 0 % 0 % 0 m²/s² 0 0 1.18 61
 07:35     17:03    Daglengte: 9:28 Zaterdag 30 Jan
00:00 1 J/kg 1.0 K 0 % 0 % 0 % 0 m²/s² 0 0 1.72 61
01:00 1 J/kg 2.2 K 0 % 0 % 0 % 0 m²/s² 0 0 2.56 61
02:00 1 J/kg 3.6 K 0 % 0 % 0 % 0 m²/s² 0 0 4.5 80
03:00 0 J/kg 5.1 K 0 % 0 % 0 % 0 m²/s² 0 0 8.28 61
04:00 2 J/kg 5.4 K 0 % 0 % 0 % 0 m²/s² 0 0 7.53 3
05:00 0 J/kg 5.6 K 0 % 0 % 0 % 0 m²/s² 0 0 6.74 2
06:00 0 J/kg 8.6 K 0 % 0 % 0 % 0 m²/s² 0 0 10.58 2
07:00 3 J/kg 10.0 K 0 % 0 % 0 % 0 m²/s² 0 0 12.67 61
08:00 4 J/kg 10.4 K 0 % 0 % 0 % 0 m²/s² 0 0 13.07 2
09:00 3 J/kg 10.9 K 0 % 0 % 0 % 0 m²/s² 0 0 13.99 2
10:00 2 J/kg 11.8 K 0 % 0 % 0 % 0 m²/s² 0 0 14.65 2
11:00 0 J/kg 11.9 K 0 % 0 % 0 % 0 m²/s² 0 0 14.18 2
12:00 0 J/kg 10.7 K 0 % 0 % 0 % 0 m²/s² 0 0 11.6 3
13:00 0 J/kg 7.4 K 0 % 0 % 0 % 0 m²/s² 0 0 7.64 3
14:00 1 J/kg 5.9 K 0 % 0 % 0 % 0 m²/s² 0 0 6.05 2
15:00 1 J/kg 5.6 K 0 % 0 % 0 % 0 m²/s² 0 0 5.96 3
16:00 1 J/kg 4.9 K 0 % 0 % 0 % 0 m²/s² 0 0 5.35 3
17:00 0 J/kg 4.0 K 0 % 0 % 0 % 0 m²/s² 0 0 4.42 3
18:00 0 J/kg 3.8 K 0 % 0 % 0 % 0 m²/s² 0 0 4.13 61
19:00 0 J/kg 3.9 K 0 % 0 % 0 % 0 m²/s² 0 0 4.14 61
20:00 1 J/kg 3.4 K 0 % 0 % 0 % 0 m²/s² 0 0 3.76 61
21:00 1 J/kg 3.4 K 0 % 0 % 0 % 0 m²/s² 0 0 3.73 61
22:00 1 J/kg 3.3 K 0 % 0 % 0 % 0 m²/s² 0 0 3.6 61
23:00 1 J/kg 3.2 K 0 % 0 % 0 % 0 m²/s² 0 0 3.5 61
 07:34     17:05    Daglengte: 9:31 Zondag 31 Jan
00:00 1 J/kg 2.9 K 0 % 0 % 0 % 0 m²/s² 0 0 3.26 61
01:00 1 J/kg 2.9 K 0 % 0 % 0 % 0 m²/s² 0 0 3.23 61
02:00 0 J/kg 3.3 K 0 % 0 % 0 % 0 m²/s² 0 0 3.63 61
03:00 0 J/kg 3.4 K 0 % 0 % 0 % 0 m²/s² 0 0 3.76 61
04:00 0 J/kg 4.0 K 0 % 0 % 0 % 0 m²/s² 0 0 4.36 61
05:00 0 J/kg 4.9 K 0 % 0 % 0 % 0 m²/s² 0 0 5.29 3
06:00 0 J/kg 5.7 K 0 % 0 % 0 % 0 m²/s² 0 0 6.09 3
07:00 0 J/kg 6.7 K 0 % 0 % 0 % 0 m²/s² 0 0 7.09 61
08:00 0 J/kg 7.8 K 0 % 0 % 0 % 0 m²/s² 0 0 8.28
09:00 0 J/kg 8.2 K 0 % 0 % 0 % 0 m²/s² 0 0 8.86
10:00 2 J/kg 9.1 K 0 % 0 % 0 % 0 m²/s² 0 0 9.88
Temp Baro Wind Neerslag
  EWN Forecast EWN WRFDA DWD ICON FMI HIRLAM MET Norway GFS
 07:37     17:00    Daglengte: 9:23 Vandaag
13:00 3.5° 1007.0 hPa 1.2 m/s 2.2 mm 4.7° 1003.5 hPa 4.4 m/s 5.7 mm 2.5° 1008.4 hPa 1.1 m/s 2.0 mm 3.4° 1007.5 hPa 0.9 m/s 0.0 mm 4.7° 1007.2 hPa 1.0 m/s 4.5° 1008.0 hPa 1.9 m/s
16:00 3.3° 1005.4 hPa 1.7 m/s 8.3 mm 5.5° 1000.0 hPa 10.6 m/s 31.2 mm 0.6° 1006.6 hPa 1.0 m/s 3.9 mm 4.6° 1005.4 hPa 2.5 m/s 0.0 mm 3.4° 1006.1 hPa 0.9 m/s 4.0° 1005.5 hPa 2.7 m/s
19:00 4.3° 1004.1 hPa 3.6 m/s 16.3 mm 6.2° 999.3 hPa 10.4 m/s 60.9 mm 1.3° 1007.1 hPa 1.4 m/s 9.4 mm 7.1° 1004.0 hPa 9.9 m/s 0.0 mm 3.2° 1004.5 hPa 1.8 m/s 5.1° 1004.7 hPa 3.2 m/s
22:00 6.2° 1004.6 hPa 5.5 m/s 13.7 mm 6.2° 1000.9 hPa 12.6 m/s 69.8 mm 6.2° 1005.0 hPa 6.4 m/s 2.9 mm 7.4° 1004.6 hPa 8.8 m/s 0.0 mm 5.4° 1005.3 hPa 1.9 m/s 5.6° 1004.9 hPa 3.0 m/s
 07:36     17:02    Daglengte: 9:26 Morgen
01:00 5.8° 1005.7 hPa 4.5 m/s 16.8 mm 5.6° 1003.0 hPa 11.2 m/s 90.3 mm 5.9° 1005.7 hPa 5.3 m/s 2.4 mm 7.5° 1005.4 hPa 8.5 m/s 0.0 mm 5.4° 1006.8 hPa 1.7 m/s 5.7° 1006.4 hPa 3.3 m/s
04:00 5.2° 1004.7 hPa 2.5 m/s 10.4 mm 5.7° 1001.3 hPa 7.9 m/s 99.4 mm 5.8° 1005.6 hPa 1.8 m/s 1.1 mm 6.9° 1004.6 hPa 3.9 m/s 0.0 mm 4.4° 1005.1 hPa 1.5 m/s 5.4° 1005.9 hPa 2.0 m/s
07:00 4.6° 1002.7 hPa 1.8 m/s 23.5 mm 5.4° 999.6 hPa 4.7 m/s 102.0 mm 3.7° 1003.2 hPa 1.7 m/s 4.1 mm 6.3° 1002.1 hPa 2.2 m/s 0.0 mm 4.5° 1002.9 hPa 1.5 m/s 5.5° 1003.7 hPa 2.1 m/s
10:00 5.3° 1000.3 hPa 1.4 m/s 18.5 mm 5.4° 997.7 hPa 4.7 m/s 114.8 mm 3.3° 1001.3 hPa 0.1 m/s 3.8 mm 6.6° 998.8 hPa 1.8 m/s 0.0 mm 5.8° 1000.5 hPa 1.3 m/s 5.4° 1001.9 hPa 1.9 m/s
13:00 5.6° 1001.2 hPa 4.6 m/s 24.7 mm 5.6° 996.9 hPa 7.8 m/s 138.3 mm 6.0° 1001.6 hPa 6.3 m/s 4.7 mm 8.2° 997.9 hPa 9.0 m/s 0.0 mm 4.6° 1002.4 hPa 1.1 m/s 5.4° 1000.8 hPa 2.6 m/s
16:00 5.8° 1001.6 hPa 4.5 m/s 20.2 mm 5.2° 998.6 hPa 9.3 m/s 157.5 mm 5.0° 1002.6 hPa 6.2 m/s 0.2 mm 6.9° 999.0 hPa 5.7 m/s 0.0 mm 6.4° 1001.9 hPa 2.9 m/s 5.1° 1001.4 hPa 2.7 m/s
19:00 4.7° 1002.4 hPa 3.5 m/s 27.0 mm 4.5° 998.9 hPa 7.0 m/s 158.6 mm 4.0° 1002.7 hPa 3.4 m/s 0.7 mm 6.4° 998.2 hPa 4.4 m/s 0.0 mm 5.1° 1003.2 hPa 2.9 m/s 4.4° 1002.5 hPa 2.3 m/s
22:00 4.3° 1002.4 hPa 2.7 m/s 24.1 mm 3.6° 998.8 hPa 8.2 m/s 159.2 mm 3.3° 1002.7 hPa 2.4 m/s 1.3 mm 6.4° 998.2 hPa 4.3 m/s 0.0 mm 5.1° 1003.1 hPa 1.7 m/s 4.1° 1003.5 hPa 2.3 m/s
 07:35     17:03    Daglengte: 9:28 Zaterdag 30 Jan
01:00 3.5° 1003.8 hPa 2.7 m/s 26.8 mm 3.6° 999.5 hPa 9.4 m/s 169.2 mm 2.1° 1004.5 hPa 1.8 m/s 4.7 mm 5.5° 998.8 hPa 5.6 m/s 0.0 mm 3.7° 1005.0 hPa 1.6 m/s 3.5° 1004.3 hPa 2.4 m/s
04:00 3.4° 1004.2 hPa 3.0 m/s 27.1 mm 3.5° 1000.0 hPa 10.2 m/s 180.8 mm 2.5° 1005.0 hPa 2.9 m/s 1.6 mm 4.4° 1004.5 hPa 1.5 m/s 3.4° 1004.4 hPa 2.6 m/s
07:00 3.1° 1002.8 hPa 2.2 m/s 21.7 mm 3.7° 997.6 hPa 8.8 m/s 186.6 mm 2.4° 1004.1 hPa 1.8 m/s 0.6 mm 3.5° 1003.0 hPa 0.9 m/s 2.3° 1003.3 hPa 2.0 m/s
10:00 4.3° 1002.4 hPa 1.9 m/s 0.0 mm 4.3° 997.5 hPa 8.5 m/s 187.9 mm 3.5° 1002.8 hPa 1.4 m/s 0.1 mm 5.7° 1002.9 hPa 0.6 m/s 3.9° 1002.0 hPa 2.3 m/s
13:00 6.0° 998.8 hPa 1.5 m/s 0.0 mm 5.3° 994.7 hPa 4.8 m/s 188.3 mm 5.9° 999.0 hPa 1.3 m/s 0.0 mm 6.9° 998.9 hPa 0.8 m/s 5.4° 999.0 hPa 0.7 m/s
16:00 5.0° 996.5 hPa 1.2 m/s 13.1 mm 4.1° 991.6 hPa 2.6 m/s 191.8 mm 5.4° 996.4 hPa 0.9 m/s 0.0 mm 5.7° 996.6 hPa 1.0 m/s 4.4° 997.6 hPa 0.8 m/s
19:00 3.4° 995.2 hPa 0.6 m/s 32.5 mm 4.1° 990.1 hPa 0.4 m/s 195.7 mm 3.4° 995.8 hPa 0.8 m/s 0.3 mm 3.7° 995.5 hPa 0.6 m/s 3.3° 998.0 hPa 1.2 m/s
22:00 2.3° 995.8 hPa 1.0 m/s 50.3 mm 2.0° 989.2 hPa 1.8 m/s 201.2 mm 2.2° 996.2 hPa 1.1 m/s 0.6 mm 2.9° 997.0 hPa 0.4 m/s 3.3° 998.4 hPa 1.5 m/s
 07:34     17:05    Daglengte: 9:31 Zondag 31 Jan
01:00 1.7° 996.6 hPa 0.8 m/s 43.7 mm -0.2° 989.2 hPa 2.6 m/s 208.1 mm 1.8° 997.1 hPa 1.1 m/s 2.2 mm 2.1° 998.4 hPa 0.3 m/s 3.2° 998.3 hPa 1.3 m/s
04:00 1.4° 997.0 hPa 0.8 m/s 48.0 mm -2.4° 990.5 hPa 2.6 m/s 215.8 mm 1.8° 996.0 hPa 0.9 m/s 0.5 mm 1.8° 999.1 hPa 0.4 m/s 3.2° 997.5 hPa 1.3 m/s
07:00 1.1° 997.7 hPa 0.7 m/s 24.9 mm -3.0° 994.6 hPa 2.1 m/s 221.7 mm 1.7° 995.7 hPa 0.4 m/s 0.2 mm 1.5° 999.9 hPa 0.6 m/s 3.4° 998.5 hPa 1.2 m/s
10:00 1.3° 1000.3 hPa 1.0 m/s 225.5 mm -2.3° 997.1 hPa 2.5 m/s 225.5 mm 1.9° 1000.8 hPa 0.7 m/s 3.7° 999.4 hPa 1.0 m/s
13:00 1.9° 1001.1 hPa 0.9 m/s 226.1 mm -1.1° 997.2 hPa 1.5 m/s 226.1 mm 2.4° 1001.8 hPa 0.8 m/s 3.9° 999.1 hPa 0.9 m/s
16:00 2.2° 1001.9 hPa 0.7 m/s 70.8 mm 2.0° 1002.3 hPa 0.7 m/s 3.9° 998.3 hPa 0.5 m/s 70.8 mm
19:00 1.9° 1002.2 hPa 0.6 m/s 71.2 mm 1.8° 1002.5 hPa 0.6 m/s 3.5° 999.4 hPa 0.7 m/s 71.2 mm
22:00 1.9° 1001.0 hPa 0.9 m/s 71.2 mm 1.9° 1001.2 hPa 0.8 m/s 2.2° 998.7 hPa 1.5 m/s 71.2 mm
 07:32     17:07    Daglengte: 9:35 Maandag 01 Feb
01:00 1.7° 999.8 hPa 1.1 m/s 71.2 mm 1.9° 1000.0 hPa 1.0 m/s 0.1° 997.3 hPa 1.8 m/s 71.2 mm
04:00 -0.1° 997.7 hPa 1.4 m/s 71.2 mm -0.1° 997.9 hPa 1.4 m/s -0.0° 995.6 hPa 1.8 m/s 71.2 mm
07:00 -1.9° 995.9 hPa 1.8 m/s 71.2 mm -2.1° 995.8 hPa 1.8 m/s 0.1° 996.4 hPa 1.8 m/s 71.2 mm
10:00 2.7° 995.4 hPa 1.4 m/s 71.2 mm 2.6° 995.2 hPa 1.5 m/s 3.8° 997.4 hPa 0.5 m/s 71.2 mm
13:00 7.0° 994.9 hPa 1.1 m/s 71.3 mm 7.2° 994.6 hPa 1.1 m/s 4.5° 997.9 hPa 0.5 m/s 71.3 mm
16:00 5.4° 997.5 hPa 0.9 m/s 72.1 mm 5.5° 997.4 hPa 0.9 m/s 3.8° 999.4 hPa 0.7 m/s 72.1 mm
19:00 3.8° 1000.4 hPa 0.7 m/s 75.0 mm 3.8° 1000.1 hPa 0.7 m/s 3.5° 1003.5 hPa 0.9 m/s 75.0 mm
22:00 3.2° 1001.9 hPa 0.7 m/s 79.4 mm 3.2° 1001.4 hPa 0.6 m/s 3.6° 1007.1 hPa 1.6 m/s 79.4 mm
 07:31     17:08    Daglengte: 9:37 Dinsdag 02 Feb
01:00 2.7° 1003.3 hPa 0.7 m/s 82.1 mm 2.6° 1002.7 hPa 0.6 m/s 3.5° 1010.1 hPa 1.4 m/s 82.1 mm
04:00 2.8° 1007.4 hPa 1.5 m/s 83.9 mm 2.8° 1007.0 hPa 1.5 m/s 3.3° 1012.8 hPa 1.3 m/s 83.9 mm
07:00 3.0° 1011.6 hPa 2.3 m/s 85.6 mm 3.0° 1011.2 hPa 2.4 m/s 3.2° 1015.6 hPa 1.1 m/s 85.6 mm
10:00 3.2° 1014.0 hPa 1.8 m/s 86.4 mm 3.1° 1013.8 hPa 1.9 m/s 3.8° 1016.8 hPa 1.2 m/s 86.4 mm
13:00 3.3° 1016.3 hPa 1.3 m/s 86.5 mm 3.2° 1016.4 hPa 1.3 m/s 4.6° 1015.6 hPa 1.7 m/s 86.5 mm
16:00 2.9° 1015.7 hPa 1.4 m/s 86.5 mm 2.8° 1015.8 hPa 1.4 m/s 4.3° 1014.6 hPa 2.1 m/s 86.5 mm
19:00 2.5° 1015.3 hPa 1.5 m/s 86.5 mm 2.3° 1015.3 hPa 1.4 m/s 4.7° 1015.2 hPa 2.1 m/s 86.5 mm
22:00 2.1° 1013.6 hPa 1.7 m/s 87.3 mm 1.8° 1013.5 hPa 1.6 m/s 4.7° 1015.2 hPa 2.6 m/s 87.3 mm
 07:30     17:10    Daglengte: 9:40 Woensdag 03 Feb
01:00 1.6° 1011.9 hPa 1.9 m/s 87.6 mm 1.4° 1011.7 hPa 1.8 m/s 3.9° 1014.0 hPa 2.7 m/s 87.6 mm
04:00 2.3° 1010.3 hPa 1.8 m/s 87.7 mm 2.0° 1010.0 hPa 1.7 m/s 4.6° 1013.0 hPa 2.6 m/s 87.7 mm
07:00 2.9° 1008.8 hPa 1.6 m/s 89.2 mm 2.7° 1008.4 hPa 1.6 m/s 4.6° 1013.3 hPa 1.8 m/s 89.2 mm
10:00 4.8° 1008.4 hPa 1.4 m/s 90.2 mm 4.8° 1008.0 hPa 1.4 m/s 5.2° 1013.3 hPa 1.4 m/s 90.2 mm
13:00 6.8° 1007.8 hPa 1.2 m/s 90.2 mm 6.8° 1007.5 hPa 1.2 m/s 6.3° 1011.4 hPa 1.1 m/s 90.2 mm
16:00 5.6° 1008.6 hPa 1.3 m/s 90.2 mm 5.7° 1008.4 hPa 1.2 m/s 5.5° 1011.0 hPa 1.4 m/s 90.2 mm
19:00 4.5° 1009.5 hPa 1.4 m/s 90.2 mm 4.5° 1009.3 hPa 1.3 m/s 4.0° 1011.7 hPa 2.6 m/s 90.2 mm
22:00 4.8° 1011.0 hPa 1.9 m/s 90.2 mm 5.0° 1011.0 hPa 1.8 m/s 2.6° 1012.1 hPa 2.9 m/s 90.2 mm
 07:28     17:11    Daglengte: 9:43 Donderdag 04 Feb
01:00 5.3° 1012.5 hPa 2.3 m/s 90.2 mm 5.6° 1012.6 hPa 2.3 m/s 1.8° 1011.7 hPa 2.9 m/s 90.2 mm
04:00 4.9° 1013.3 hPa 1.9 m/s 90.2 mm 5.3° 1013.5 hPa 1.8 m/s 1.0° 1010.7 hPa 3.0 m/s 90.2 mm
07:00 4.7° 1014.1 hPa 1.4 m/s 90.2 mm 5.0° 1014.5 hPa 1.2 m/s 1.5° 1010.2 hPa 3.1 m/s 90.2 mm
10:00 7.3° 1013.4 hPa 1.1 m/s 90.2 mm 7.5° 1013.8 hPa 0.9 m/s 5.2° 1009.2 hPa 2.8 m/s 90.2 mm
13:00 9.7° 1012.6 hPa 0.9 m/s 90.2 mm 10.0° 1013.1 hPa 0.7 m/s 6.6° 1006.7 hPa 2.6 m/s 90.2 mm
19:00 6.0° 1009.9 hPa 1.4 m/s 90.2 mm 6.1° 1010.2 hPa 1.2 m/s 5.3° 1006.1 hPa 3.1 m/s 90.2 mm
 07:27     17:13    Daglengte: 9:46 Vrijdag 05 Feb
01:00 3.4° 1007.7 hPa 2.5 m/s 90.2 mm 3.2° 1007.9 hPa 2.5 m/s 5.5° 1005.3 hPa 2.7 m/s 90.2 mm
07:00 1.8° 1008.5 hPa 2.1 m/s 90.2 mm 1.6° 1008.8 hPa 2.1 m/s 4.1° 1005.1 hPa 1.5 m/s 90.2 mm
13:00 13.2° 1009.4 hPa 0.6 m/s 90.2 mm 13.8° 1009.7 hPa 0.6 m/s 6.5° 1006.2 hPa 0.1 m/s 90.2 mm
19:00 4.6° 1010.9 hPa 0.9 m/s 95.7 mm 4.6° 1011.2 hPa 1.0 m/s 4.2° 1007.9 hPa 0.0 m/s 95.7 mm
 07:25     17:14    Daglengte: 9:49 Zaterdag 06 Feb
01:00 3.0° 1011.4 hPa 1.5 m/s 98.3 mm 2.8° 1011.7 hPa 1.6 m/s 4.6° 1007.7 hPa 0.5 m/s 98.3 mm
07:00 2.2° 1011.5 hPa 1.4 m/s 106.7 mm 2.0° 1011.9 hPa 1.5 m/s 4.3° 1006.7 hPa 0.6 m/s 106.7 mm
13:00 4.7° 1007.6 hPa 1.3 m/s 108.6 mm 4.7° 1007.6 hPa 1.3 m/s 108.6 mm
19:00 3.6° 1007.7 hPa 2.1 m/s 108.6 mm 3.6° 1007.7 hPa 2.1 m/s 108.6 mm
 07:24     17:16    Daglengte: 9:52 Zondag 07 Feb
01:00 2.2° 1004.9 hPa 2.2 m/s 108.8 mm 2.2° 1004.9 hPa 2.2 m/s 108.8 mm
07:00 -0.2° 1016.5 hPa 0.3 m/s 1.2 mm
13:00 2.7° 1016.4 hPa 0.9 m/s 0.7 mm
19:00 0.1° 1017.6 hPa 0.6 m/s 0.8 mm
 07:22     17:18    Daglengte: 9:56 Maandag 08 Feb
01:00 -1.2° 1018.5 hPa 0.6 m/s 0.5 mm
07:00 -2.2° 1018.7 hPa 0.5 m/s 0.5 mm
13:00 1.7° 1018.2 hPa 0.8 m/s 0.6 mm
19:00 -1.2° 1020.1 hPa 0.3 m/s 0.6 mm
 07:21     17:19    Daglengte: 9:58 Dinsdag 09 Feb
01:00 -2.6° 1021.8 hPa 0.4 m/s 0.6 mm
07:00 -3.5° 1022.1 hPa 0.5 m/s 0.5 mm
13:00 1.5° 1020.8 hPa 0.7 m/s 0.4 mm
19:00 -1.7° 1022.2 hPa 0.3 m/s 0.4 mm
 07:19     17:21    Daglengte: 10:02 Woensdag 10 Feb
01:00 -2.9° 1022.8 hPa 0.8 m/s 0.7 mm
07:00 -3.4° 1022.3 hPa 0.8 m/s 1.2 mm
13:00 1.9° 1020.7 hPa 0.5 m/s 1.2 mm
19:00 -1.2° 1022.0 hPa 0.5 m/s 0.8 mm
 07:18     17:22    Daglengte: 10:04 Donderdag 11 Feb
01:00 -2.5° 1023.0 hPa 0.9 m/s 1.1 mm
07:00 -3.1° 1022.6 hPa 1.0 m/s 1.1 mm
13:00 2.1° 1020.9 hPa 1.0 m/s 1.1 mm
19:00 -1.5° 1022.1 hPa 0.7 m/s 0.6 mm
 07:16     17:24    Daglengte: 10:08 Vrijdag 12 Feb
01:00 -2.9° 1022.7 hPa 1.0 m/s 0.8 mm
07:00 -3.0° 1021.8 hPa 0.9 m/s 0.7 mm
FMI Hirlam - 7.5 km EWN WRFDA - 12 km DWD ICON - 7 km GFS - 25 km Basiskaart






























































Updatetijd (Europe/Brussels) Resolutie Lengte Stap
FMI Hirlam 06:15, 12:15, 18:15, 00:15 7.5 km 49h 1h
EWN WRFDA 09:30, 15:30, 21:30, 03:30 12 km 73h 1h
DWD ICON 05:15, 11:15, 17:15, 23:15 7 km 75h 1h
GFS 07:15, 13:15, 19:15, 01:15 25 km 237h 3h
30+ mm
25-30 mm
20-25 mm
15-20 mm
10-15 mm
6-10 mm
4-6 mm
2-4 mm
1-2 mm
0.5-1 mm
0.2-0.5 mm
0.1-0.2 mm
30+ mm
25-30 mm
20-25 mm
15-20 mm
10-15 mm
6-10 mm
4-6 mm
2-4 mm
1-2 mm
0.5-1 mm
0.2-0.5 mm
0.1-0.2 mm
Sneeuwval
Natte sneeuw
Hagel
Vorst
30+ mm
25-30 mm
20-25 mm
15-20 mm
10-15 mm
6-10 mm
4-6 mm
2-4 mm
1-2 mm
0.5-1 mm
0.2-0.5 mm
0.1-0.2 mm
Sneeuwval
Natte sneeuw
Hagel
Vorst
Onweer
50 mm
40 mm
30 mm
26 mm
22 mm
18 mm
14 mm
10 mm
9 mm
8 mm
7 mm
6 mm
5 mm
4.5 mm
4 mm
3.5 mm
3 mm
2.5 mm
2 mm
1.5 mm
1 mm
0.8 mm
0.6 mm
0.4 mm
0.2 mm
0.05 mm
35°
30°
25°
20°
15°
10°
-5°
-10°
-15°
-20°
-25°
-30°
-35°
33> m/s
29 m/s
25 m/s
21 m/s
17 m/s
14 m/s
11 m/s
8 m/s
5 m/s
3 m/s
0 m/s
<
2600 J/kg
2400 J/kg
2200 J/kg
2000 J/kg
1800 J/kg
1600 J/kg
1400 J/kg
1200 J/kg
1000 J/kg
800 J/kg
600 J/kg